Flag for U.S.A. Weather past 2 weeks in Raleigh, North Carolina, U.S.A.

Now
43 °F

Passing clouds.


Feels Like: 37 °F
Forecast: 31 / 47 °F
Wind: 10 mph from North

Location: Raleigh-Durham International Airport

Current Time: Jan 30, 2015 at 9:43:56 AM

Latest Report: Jan 30, 2015 at 8:51 AM


Visibility: 10 mi

Pressure: 30.06 "Hg

Humidity: 43%

Dew point: 22 °F

Location of RaleighLocation

Historic Weather in Raleigh — Graph

°F

Raleigh temperature yesterday

Maximum temperature yesterday: 46 °F (at 4:01 PM)
Minimum temperature yesterday: 23 °F (at 2:51 AM)
Average temperature yesterday: 35 °F

Past Weeks' High & Low Weather Summary

 TemperatureHumidityPressure
High67 °F (Jan 20, 2:51 PM)93% (Jan 18, 5:02 AM)30.39 "Hg (Jan 18, 5:02 AM)
Low23 °F (Jan 29, 2:51 AM)22% (Jan 28, 3:51 PM)29.55 "Hg (Jan 24, 6:51 AM)
Average41 °F63%30.02 "Hg
* Reported Jan 15 8:51 AM — Jan 30 8:51 AM, Raleigh, Weather by CustomWeather, © 2014

Note: Actual official high and low records may vary slightly from our data, if they occured in-between our weather recording intervals... More about our weather records

Advertising

Raleigh weather history for previous 24 hours

 ConditionsComfort  
Time TempWeatherWind HumidityBarometerVisibility
8:51 AM
Jan 30
43 °FPassing clouds.10 mph43%30.06 "Hg10 mi
7:51 AM42 °FScattered clouds.7 mph51%30.04 "Hg10 mi
6:51 AM41 °FPassing clouds.5 mph58%30.01 "Hg10 mi
5:51 AM40 °FPassing clouds.3 mph60%29.98 "Hg10 mi
4:51 AM39 °FLight rain. Passing clouds.3 mph65%29.97 "Hg10 mi
3:51 AM38 °FMostly cloudy.6 mph65%29.96 "Hg10 mi
2:51 AM38 °FPartly cloudy.5 mph63%29.97 "Hg10 mi
1:51 AM40 °FPassing clouds.5 mph55%29.99 "Hg10 mi
12:51 AM38 °FPassing clouds.9 mph60%30.00 "Hg10 mi
11:51 PM
Jan 29
40 °FPassing clouds.9 mph53%30.02 "Hg10 mi
10:51 PM38 °FPassing clouds.7 mph58%30.07 "Hg10 mi
9:51 PM38 °FPassing clouds.5 mph58%30.09 "Hg10 mi
8:51 PM39 °FPassing clouds.No wind53%30.10 "Hg10 mi
7:51 PM39 °FPassing clouds.7 mph55%30.11 "Hg10 mi
6:51 PM42 °FPassing clouds.9 mph51%30.11 "Hg10 mi
5:51 PM42 °FPassing clouds.5 mph51%30.12 "Hg10 mi
4:51 PM41 °FPartly sunny.7 mph65%30.14 "Hg10 mi
4:01 PM46 °FSleet. Partly sunny.10 mph29%30.16 "Hg10 mi
2:51 PM46 °FPartly sunny.9 mph30%30.20 "Hg10 mi
1:51 PM46 °FBroken clouds.10 mph29%30.22 "Hg10 mi
12:51 PM44 °FBroken clouds.8 mph29%30.25 "Hg10 mi
11:51 AM42 °FBroken clouds.9 mph30%30.31 "Hg10 mi
10:51 AM38 °FBroken clouds.7 mph31%30.34 "Hg10 mi
9:51 AM34 °FPartly sunny.7 mph37%30.36 "Hg10 mi
Weather by CustomWeather, © 2014

See weather overviewHow to use our weather pages